This demonstration page uses our WeatherBlox Daily Observations layout. Learn more.

Left ArrowRight Arrow

Hourly Observations for December 19, 2020

Temp ( °F °C ) Dew Point ( °F °C ) Humidity (%) Winds ( mph kmh ) Pressure ( in mb ) Visibility ( mi km ) Precip ( " mm )
12:54 am 00:54 Clear 29 -1.7 19 -7.2 66 66 N 12 19 30.15 1021 10 16.0934 0 0
1:54 am 01:54 Clear 27 -2.8 18 -7.8 69 69 NNW 6 9 30.16 1021 10 16.0934 0 0
2:54 am 02:54 Clear 22 -5.6 15 -9.4 75 75 NNW 6 9 30.17 1022 10 16.0934 0 0
3:54 am 03:54 Clear 25 -3.9 16 -8.9 69 69 NNW 8 13 30.19 1022 10 16.0934 0 0
4:54 am 04:54 Clear 24 -4.4 15 -9.4 68 68 NNW 10 17 30.19 1023 10 16.0934 0 0
5:54 am 05:54 Clear 22 -5.6 15 -9.4 75 75 NNW 5 7 30.2 1023 10 16.0934 0 0
6:54 am 06:54 Clear 18 -7.8 12 -11.1 77 77 NNW 6 9 30.21 1023 10 16.0934 0 0
7:54 am 07:54 Sunny 18 -7.8 11 -11.7 74 74 W 3 6 30.21 1023 10 16.0934 0 0
8:54 am 08:54 Sunny 21 -6.1 13 -10.6 71 71 WNW 3 6 30.21 1023 9 14.48406 0 0
9:54 am 09:54 Sunny 24 -4.4 13 -10.6 62 62 WNW 6 9 30.22 1023 10 16.0934 0 0
10:54 am 10:54 Sunny 27 -2.8 13 -10.6 55 55 Calm 30.2 1023 10 16.0934 0 0
11:54 am 11:54 Sunny 29 -1.7 15 -9.4 56 56 Calm 30.16 1022 10 16.0934 0 0
12:54 pm 12:54 Sunny 32 0 18 -7.8 56 56 WSW 9 15 30.14 1021 10 16.0934 0 0
1:54 pm 13:54 Sunny 34 1.1 20 -6.7 56 56 SW 8 13 30.11 1020 10 16.0934 0 0
2:54 pm 14:54 Sunny 35 1.7 21 -6.1 57 57 S 8 13 30.08 1019 10 16.0934 0 0
3:54 pm 15:54 Sunny 36 2.2 22 -5.6 57 57 SSW 7 11 30.07 1018 10 16.0934 0 0
4:54 pm 16:54 Sunny 32 0 22 -5.6 66 66 SSE 7 11 30.05 1018 10 16.0934 0 0
5:54 pm 17:54 Clear 28 -2.2 21 -6.1 75 75 SSE 6 9 30.03 1017 10 16.0934 0 0
6:54 pm 18:54 Clear 29 -1.7 21 -6.1 72 72 SSE 8 13 30.02 1017 10 16.0934 0 0
7:54 pm 19:54 Clear 27 -2.8 20 -6.7 75 75 S 6 9 30.02 1017 10 16.0934 0 0
8:54 pm 20:54 Clear 29 -1.7 21 -6.1 72 72 SSE 6 9 30.01 1016 10 16.0934 0 0
9:54 pm 21:54 Clear 28 -2.2 20 -6.7 72 72 SE 5 7 30 1016 10 16.0934 0 0
10:54 pm 22:54 Clear 30 -1.1 21 -6.1 69 69 SE 3 6 29.98 1015 10 16.0934 0 0
11:54 pm 23:54 Clear 32 0 22 -5.6 66 66 SSW 6 9 29.97 1015 10 16.0934 0 0

Powered by AerisWeather